TimePST,TemperatureF,Dew PointF,Humidity,Sea Level PressureIn,VisibilityMPH,Wind Direction,Wind SpeedMPH,Gust SpeedMPH,PrecipitationIn,Events,Conditions,WindDirDegrees,DateUTC
12:53 AM,42.1,41.0,96,30.22,10.0,NNW,6.9,-,N/A,,Clear,330,2012-11-23 08:53:00
1:53 AM,44.1,41.0,89,30.21,10.0,North,6.9,-,0.01,,Clear,350,2012-11-23 09:53:00
2:53 AM,43.0,41.0,93,30.22,10.0,North,8.1,-,N/A,,Clear,350,2012-11-23 10:53:00
3:53 AM,41.0,39.0,93,30.22,10.0,NW,5.8,-,N/A,,Clear,310,2012-11-23 11:53:00
4:53 AM,39.9,39.0,97,30.22,10.0,NW,6.9,-,N/A,,Clear,310,2012-11-23 12:53:00
5:53 AM,41.0,39.0,93,30.22,10.0,NNW,5.8,-,N/A,,Clear,330,2012-11-23 13:53:00
6:53 AM,39.0,37.0,93,30.23,10.0,WNW,5.8,-,N/A,Fog,Patches of Fog,290,2012-11-23 14:53:00
7:53 AM,42.1,39.9,92,30.25,10.0,Calm,Calm,-,N/A,Fog,Patches of Fog,0,2012-11-23 15:53:00
8:53 AM,46.9,43.0,86,30.26,10.0,Calm,Calm,-,N/A,Fog,Patches of Fog,0,2012-11-23 16:53:00
9:53 AM,52.0,46.0,80,30.25,10.0,Calm,Calm,-,N/A,,Scattered Clouds,0,2012-11-23 17:53:00
10:53 AM,59.0,46.0,62,30.25,10.0,Calm,Calm,-,N/A,,Scattered Clouds,0,2012-11-23 18:53:00
11:53 AM,62.1,44.1,52,30.21,10.0,Calm,Calm,-,N/A,,Scattered Clouds,0,2012-11-23 19:53:00
12:53 PM,66.0,46.0,48,30.19,10.0,Calm,Calm,-,N/A,,Scattered Clouds,0,2012-11-23 20:53:00
1:53 PM,69.1,42.1,38,30.17,10.0,Calm,Calm,-,N/A,,Clear,0,2012-11-23 21:53:00
2:53 PM,69.1,41.0,36,30.16,10.0,Calm,Calm,-,N/A,,Clear,0,2012-11-23 22:53:00
3:53 PM,68.0,46.0,45,30.15,10.0,South,4.6,-,N/A,,Clear,190,2012-11-23 23:53:00
4:53 PM,61.0,46.0,58,30.15,10.0,South,3.5,-,N/A,,Clear,170,2012-11-24 00:53:00
5:53 PM,55.9,46.9,72,30.15,10.0,SE,4.6,-,N/A,,Clear,130,2012-11-24 01:53:00
6:53 PM,53.1,48.0,83,30.16,10.0,Calm,Calm,-,N/A,,Clear,0,2012-11-24 02:53:00
7:53 PM,48.9,46.9,93,30.18,9.0,Calm,Calm,-,N/A,,Clear,0,2012-11-24 03:53:00
8:39 PM,48.2,46.4,93,30.19,1.5,NNW,4.6,-,N/A,,Clear,340,2012-11-24 04:39:00
8:51 PM,46.4,44.6,93,30.20,4.0,NNW,5.8,-,N/A,,Clear,340,2012-11-24 04:51:00
8:53 PM,46.9,45.0,93,30.18,7.0,NNW,4.6,-,N/A,,Clear,340,2012-11-24 04:53:00
9:48 PM,46.4,44.6,93,30.20,1.8,NNW,3.5,-,N/A,,Clear,340,2012-11-24 05:48:00
10:00 PM,46.4,44.6,93,30.20,9.0,NNW,5.8,-,N/A,,Clear,330,2012-11-24 06:00:00
10:53 PM,46.9,44.1,90,30.19,10.0,NNW,3.5,-,N/A,,Clear,330,2012-11-24 06:53:00
11:49 PM,44.6,42.8,93,30.20,1.8,NNW,3.5,-,N/A,,Clear,340,2012-11-24 07:49:00
11:53 PM,44.1,43.0,96,30.19,1.5,NNW,3.5,-,N/A,,Clear,340,2012-11-24 07:53:00